TimeCDT,TemperatureF,Dew PointF,Humidity,Sea Level PressureIn,VisibilityMPH,Wind Direction,Wind SpeedMPH,Gust SpeedMPH,PrecipitationIn,Events,Conditions,WindDirDegrees,DateUTC
12:54 AM,48.0,36.0,63,30.06,10.0,Variable,3.5,-,N/A,,Clear,0,2012-10-09 05:54:00
1:54 AM,46.9,36.0,66,30.06,10.0,Calm,Calm,-,N/A,,Clear,0,2012-10-09 06:54:00
2:54 AM,43.0,36.0,76,30.06,10.0,ENE,4.6,-,N/A,,Clear,70,2012-10-09 07:54:00
3:54 AM,39.0,35.1,86,30.05,10.0,East,3.5,-,N/A,,Clear,90,2012-10-09 08:54:00
4:54 AM,41.0,36.0,82,30.04,10.0,Calm,Calm,-,N/A,,Clear,0,2012-10-09 09:54:00
5:54 AM,37.0,34.0,89,30.06,10.0,Calm,Calm,-,N/A,,Clear,0,2012-10-09 10:54:00
6:54 AM,37.9,35.1,89,30.07,10.0,Calm,Calm,-,N/A,,Clear,0,2012-10-09 11:54:00
7:54 AM,41.0,36.0,82,30.07,10.0,Calm,Calm,-,N/A,,Clear,0,2012-10-09 12:54:00
8:54 AM,52.0,41.0,66,30.06,10.0,SSW,12.7,-,N/A,,Clear,200,2012-10-09 13:54:00
9:54 AM,55.0,42.1,62,30.05,10.0,SSW,10.4,-,N/A,,Clear,200,2012-10-09 14:54:00
10:54 AM,60.1,43.0,53,30.04,10.0,SSW,8.1,-,N/A,,Scattered Clouds,210,2012-10-09 15:54:00
11:54 AM,63.0,43.0,48,30.01,10.0,SSW,13.8,20.7,N/A,,Clear,210,2012-10-09 16:54:00
12:54 PM,64.9,42.1,43,29.97,10.0,SSW,12.7,18.4,N/A,,Clear,210,2012-10-09 17:54:00
1:54 PM,66.0,42.1,42,29.95,10.0,SW,6.9,18.4,N/A,,Clear,220,2012-10-09 18:54:00
2:54 PM,66.9,42.1,40,29.93,10.0,SW,8.1,20.7,N/A,,Clear,230,2012-10-09 19:54:00
3:54 PM,66.9,42.1,40,29.91,10.0,South,10.4,18.4,N/A,,Partly Cloudy,180,2012-10-09 20:54:00
4:54 PM,66.9,42.1,40,29.92,10.0,SSW,9.2,-,N/A,,Clear,200,2012-10-09 21:54:00
5:54 PM,64.0,42.1,45,29.92,10.0,SW,6.9,-,N/A,,Mostly Cloudy,220,2012-10-09 22:54:00
6:54 PM,55.9,44.1,64,29.93,10.0,South,3.5,-,N/A,,Scattered Clouds,180,2012-10-09 23:54:00
7:54 PM,55.0,45.0,69,29.93,10.0,Calm,Calm,-,N/A,,Overcast,0,2012-10-10 00:54:00
8:54 PM,54.0,46.9,77,29.94,10.0,WSW,3.5,-,N/A,,Mostly Cloudy,250,2012-10-10 01:54:00
9:54 PM,59.0,45.0,60,29.94,10.0,Calm,Calm,-,N/A,,Overcast,0,2012-10-10 02:54:00
10:54 PM,55.0,44.1,67,30.01,10.0,North,18.4,23.0,0.00,,Overcast,350,2012-10-10 03:54:00
11:01 PM,55.4,44.6,67,30.01,10.0,North,15.0,-,N/A,,Overcast,350,2012-10-10 04:01:00
11:44 PM,53.6,44.6,72,30.04,10.0,NNW,10.4,21.9,N/A,,Overcast,330,2012-10-10 04:44:00
11:54 PM,52.0,45.0,77,30.05,9.0,North,12.7,21.9,0.00,Rain,Light Rain,350,2012-10-10 04:54:00